Tiempo cada hora Alkhan-Kala

Hoy, 30 Julio, Viernes

Tiempo Temperatura Precipitaciones Viento Presión Humedad
00:00 +22°C° 0 mm 1 mps 745 mmHg 55%
01:00 +21°C° 0 mm 1 mps 745 mmHg 57%
02:00 +21°C° 0 mm 1 mps 745 mmHg 59%
03:00 +21°C° 0 mm 1 mps 745 mmHg 61%
04:00 +21°C° 0 mm 1 mps 745 mmHg 61%
05:00 +22°C° 0 mm 1 mps 745 mmHg 62%
06:00 +22°C° 0 mm 1 mps 745 mmHg 63%
07:00 +24°C° 0 mm 1 mps 745 mmHg 56%
08:00 +26°C° 0 mm 1 mps 745 mmHg 50%
09:00 +28°C° 0 mm 1 mps 745 mmHg 43%
10:00 +30°C° 0 mm 2 mps 745 mmHg 39%
11:00 +31°C° 0 mm 2 mps 744 mmHg 35%
12:00 +32°C° 0 mm 2 mps 744 mmHg 30%
13:00 +34°C° 0 mm 2 mps 744 mmHg 29%
14:00 +35°C° 0 mm 2 mps 743 mmHg 27%
15:00 +36°C° 0 mm 2 mps 743 mmHg 26%
16:00 +35°C° 0 mm 2 mps 743 mmHg 29%
17:00 +34°C° 0 mm 2 mps 743 mmHg 32%
18:00 +32°C° 0 mm 2 mps 743 mmHg 36%
19:00 +30°C° 0 mm 2 mps 743 mmHg 39%
20:00 +27°C° 0 mm 2 mps 743 mmHg 42%
21:00 +25°C° 0 mm 2 mps 743 mmHg 46%
22:00 +25°C° 0 mm 2 mps 743 mmHg 49%
23:00 +24°C° 0 mm 1 mps 743 mmHg 52%

Mañana, 31 Julio, Sábado

Tiempo Temperatura Precipitaciones Viento Presión Humedad
00:00 +23°C° 0 mm 1 mps 743 mmHg 55%
01:00 +23°C° 0 mm 1 mps 743 mmHg 57%
02:00 +22°C° 0 mm 1 mps 743 mmHg 59%
03:00 +22°C° 0 mm 1 mps 743 mmHg 62%
04:00 +23°C° 0 mm 1 mps 743 mmHg 62%
05:00 +23°C° 0 mm 1 mps 743 mmHg 63%
06:00 +23°C° 0 mm 1 mps 743 mmHg 64%
07:00 +25°C° 0 mm 1 mps 743 mmHg 57%
08:00 +28°C° 0 mm 1 mps 743 mmHg 51%
09:00 +30°C° 0 mm 2 mps 744 mmHg 44%
10:00 +31°C° 0 mm 2 mps 743 mmHg 40%
11:00 +32°C° 0 mm 2 mps 743 mmHg 36%
12:00 +35°C° 0 mm 2 mps 743 mmHg 32%
13:00 +35°C° 0 mm 2 mps 743 mmHg 31%
14:00 +35°C° 0 mm 1 mps 742 mmHg 30%
15:00 +36°C° 0 mm 1 mps 742 mmHg 29%
16:00 +35°C° 0 mm 1 mps 742 mmHg 32%
17:00 +35°C° 0 mm 2 mps 742 mmHg 35%
18:00 +34°C° 0 mm 2 mps 742 mmHg 38%
19:00 +31°C° 0 mm 2 mps 743 mmHg 42%
20:00 +29°C° 0 mm 2 mps 743 mmHg 46%
21:00 +27°C° 0 mm 2 mps 743 mmHg 50%
22:00 +27°C° 0 mm 2 mps 743 mmHg 53%
23:00 +26°C° 0 mm 2 mps 743 mmHg 56%

Pasado mañana, 1 Agosto, Domingo

Tiempo Temperatura Precipitaciones Viento Presión Humedad
00:00 +25°C° 0 mm 2 mps 743 mmHg 58%
01:00 +25°C° 0 mm 2 mps 743 mmHg 60%
02:00 +24°C° 0 mm 2 mps 743 mmHg 61%
03:00 +24°C° 0 mm 1 mps 743 mmHg 62%
04:00 +24°C° 0 mm 1 mps 744 mmHg 62%
05:00 +25°C° 0 mm 1 mps 744 mmHg 62%
06:00 +25°C° 0 mm 1 mps 744 mmHg 62%
07:00 +27°C° 0 mm 1 mps 744 mmHg 55%
08:00 +29°C° 0 mm 1 mps 744 mmHg 47%
09:00 +31°C° 0 mm 1 mps 744 mmHg 40%
10:00 +33°C° 0 mm 1 mps 744 mmHg 36%
11:00 +35°C° 0 mm 2 mps 744 mmHg 32%
12:00 +37°C° 0 mm 2 mps 743 mmHg 27%
13:00 +37°C° 0 mm 2 mps 743 mmHg 26%
14:00 +38°C° 0 mm 2 mps 743 mmHg 24%
15:00 +38°C° 0 mm 2 mps 742 mmHg 23%
16:00 +37°C° 0 mm 2 mps 742 mmHg 27%
17:00 +36°C° 0 mm 2 mps 742 mmHg 31%
18:00 +35°C° 0 mm 3 mps 742 mmHg 35%
19:00 +32°C° 0 mm 2 mps 743 mmHg 40%
20:00 +30°C° 0 mm 2 mps 743 mmHg 45%
21:00 +28°C° 0 mm 2 mps 743 mmHg 50%
22:00 +27°C° 0 mm 1 mps 743 mmHg 53%
23:00 +27°C° 0 mm 1 mps 743 mmHg 55%

2 Agosto, Lunes

Tiempo Temperatura Precipitaciones Viento Presión Humedad
00:00 +26°C° 0 mm 1 mps 743 mmHg 57%
01:00 +26°C° 0 mm 1 mps 743 mmHg 59%
02:00 +25°C° 0 mm 1 mps 743 mmHg 60%
03:00 +25°C° 0 mm 1 mps 743 mmHg 62%
04:00 +25°C° 0.1 mm 1 mps 743 mmHg 63%
05:00 +25°C° 0.1 mm 1 mps 743 mmHg 64%
06:00 +25°C° 0.1 mm 1 mps 743 mmHg 65%
07:00 +27°C° 0.1 mm 1 mps 744 mmHg 61%
08:00 +29°C° 0.1 mm 1 mps 744 mmHg 56%
09:00 +30°C° 0.1 mm 1 mps 744 mmHg 51%
10:00 +32°C° 0 mm 1 mps 744 mmHg 46%
11:00 +34°C° 0 mm 2 mps 743 mmHg 40%
12:00 +36°C° 0 mm 2 mps 743 mmHg 35%
13:00 +37°C° 0.1 mm 2 mps 743 mmHg 34%
14:00 +37°C° 0.1 mm 2 mps 742 mmHg 32%
15:00 +37°C° 0.1 mm 1 mps 742 mmHg 30%
16:00 +36°C° 0.4 mm 2 mps 742 mmHg 38%
17:00 +33°C° 0.4 mm 3 mps 743 mmHg 45%
18:00 +30°C° 0.4 mm 4 mps 743 mmHg 53%
19:00 +29°C° 0 mm 3 mps 743 mmHg 55%
20:00 +28°C° 0 mm 2 mps 743 mmHg 57%
21:00 +27°C° 0 mm 1 mps 743 mmHg 58%
22:00 +26°C° 0 mm 1 mps 743 mmHg 58%
23:00 +26°C° 0 mm 2 mps 743 mmHg 57%

3 Agosto, Martes

Tiempo Temperatura Precipitaciones Viento Presión Humedad
00:00 +26°C° 0 mm 2 mps 743 mmHg 56%
01:00 +26°C° 0 mm 1 mps 743 mmHg 56%
02:00 +25°C° 0 mm 1 mps 743 mmHg 55%
03:00 +25°C° 0 mm 1 mps 743 mmHg 55%
04:00 +25°C° 0 mm 1 mps 743 mmHg 54%
05:00 +25°C° 0 mm 1 mps 744 mmHg 53%
06:00 +26°C° 0 mm 1 mps 744 mmHg 52%
07:00 +28°C° 0 mm 1 mps 744 mmHg 46%
08:00 +31°C° 0 mm 1 mps 744 mmHg 41%
09:00 +34°C° 0 mm 1 mps 744 mmHg 35%
10:00 +35°C° 0 mm 1 mps 744 mmHg 32%
11:00 +36°C° 0 mm 1 mps 743 mmHg 30%
12:00 +39°C° 0 mm 1 mps 743 mmHg 27%
13:00 +39°C° 0 mm 1 mps 743 mmHg 26%
14:00 +40°C° 0 mm 1 mps 742 mmHg 25%
15:00 +40°C° 0 mm 1 mps 742 mmHg 24%
16:00 +40°C° 0 mm 2 mps 742 mmHg 27%
17:00 +39°C° 0 mm 2 mps 742 mmHg 30%
18:00 +38°C° 0 mm 2 mps 742 mmHg 33%
19:00 +36°C° 0 mm 2 mps 743 mmHg 37%
20:00 +32°C° 0 mm 2 mps 743 mmHg 41%
21:00 +30°C° 0 mm 2 mps 743 mmHg 45%
22:00 +29°C° 0 mm 2 mps 744 mmHg 47%
23:00 +29°C° 0 mm 2 mps 744 mmHg 49%

4 Agosto, Miércoles

Tiempo Temperatura Precipitaciones Viento Presión Humedad
00:00 +28°C° 0 mm 2 mps 744 mmHg 51%
01:00 +28°C° 0 mm 2 mps 744 mmHg 51%
02:00 +28°C° 0 mm 2 mps 744 mmHg 51%
03:00 +27°C° 0 mm 2 mps 744 mmHg 52%
04:00 +27°C° 0 mm 2 mps 744 mmHg 51%
05:00 +28°C° 0 mm 2 mps 745 mmHg 51%
06:00 +28°C° 0 mm 2 mps 745 mmHg 50%
07:00 +30°C° 0 mm 2 mps 745 mmHg 45%
08:00 +34°C° 0 mm 3 mps 745 mmHg 40%
09:00 +36°C° 0 mm 3 mps 745 mmHg 34%
10:00 +38°C° 0 mm 3 mps 745 mmHg 32%
11:00 +39°C° 0 mm 3 mps 745 mmHg 29%
12:00 +40°C° 0 mm 3 mps 745 mmHg 26%
13:00 +41°C° 0.1 mm 4 mps 745 mmHg 27%
14:00 +41°C° 0.1 mm 5 mps 745 mmHg 27%
15:00 +41°C° 0.1 mm 5 mps 744 mmHg 27%
16:00 +37°C° 0.2 mm 5 mps 745 mmHg 35%
17:00 +35°C° 0.2 mm 5 mps 745 mmHg 43%
18:00 +32°C° 0.2 mm 4 mps 746 mmHg 51%
19:00 +32°C° 0 mm 4 mps 746 mmHg 50%
20:00 +30°C° 0 mm 3 mps 746 mmHg 50%
21:00 +30°C° 0 mm 3 mps 746 mmHg 49%
22:00 +30°C° 0 mm 3 mps 746 mmHg 49%
23:00 +29°C° 0 mm 2 mps 746 mmHg 49%
Mostrar más

Necesitamos Su Consentimiento

Meteoprog y nuestros Proveedores de Servicios pueden almacenar y acceder a sus datos personales como cookies, identificadores de dispositivo u otras tecnologías similares de su dispositivo y procesar dichos datos para personalizar contenido y anuncios, además de ofrecer funciones de redes sociales y analizar el tráfico.

  • Almacenar y/o acceder a información en su dispositivo

    Se puede almacenar o acceder a cookies, identificadores de dispositivo u otra información de su dispositivo para los fines anteriormente indicados.

  • Anuncios y contenido personalizados, medición de anuncios y contenido, percepciones del público, y desarrollo de productos

    Los anuncios y el contenido pueden personalizarse en base a su perfil. Se pueden añadir más datos para personalizar mejor los anuncios y contenidos. Se puede medir el rendimiento de los anuncios y contenidos. Se puede obtener la percepción sobre el público que ha visto los anuncios y contenidos. Dichos datos pueden usarse para desarrollar o mejorar la experiencia del usuario, sistemas y software.

Al hacer clic en ‘Estoy De Acuerdo’ usted permitirá el uso de las cookies, identificadores de dispositivo, balizas web u otras tecnologías similares indicadas. Su configuración puede cambiarse desde el navegador de su dispositivo.

Para ciertos fines, los intereses legítimos pueden ser considerados por encima del consentimiento. Puede leer más sobre ello en nuestra Política de Privacidad y Cookies.